World > North America > United States > New York > Acra  

Acra, NY Hourly Weather Updates

Feedback E-mail the Weather

Quick Clicks

Acra, NY Weather Maps

°F °C°F °C
Acra Weather Map
UTC Time: 4/21/2024, 11:01
Your Time:

Acra, NY Regional Weather

Expires:202404211100;;122293
ASUS41 KALY 211010
RWRALY

NEW YORK STATE HOURLY WEATHER ROUNDUP
NATIONAL WEATHER SERVICE ALBANY NY
600 AM EDT SUN APR 21 2024

NOTE: "FAIR" INDICATES FEW OR NO CLOUDS BELOW 12,000 FEET WITH NO
SIGNIFICANT WEATHER AND/OR NO OBSTRUCTIONS TO VISIBILITY.


NYZ032-033-038>043-046>054-057>066-NYZ062>081-082-084-211100-
EAST

  
CITY           SKY/WX    TMP DP  RH WIND       PRES   REMARKS
ALBANY         PTCLDY    33  25  72 S3        30.02S                  
GLENS FALLS    CLEAR     30  28  92 SW5       29.98S WCI  25          
POUGHKEEPSIE   PTCLDY    33  28  81 CALM      30.03R                  
NEWBURGH       CLEAR     32  28  86 CALM      30.01R                  
MONTGOMERY     PTCLDY    31  26  82 CALM      30.02R                  
WHITE PLAINS   PTCLDY    37  27  67 W3        30.02R                  
ISLIP          MOCLDY    37  29  72 CALM      30.04R                  
NEW YORK CITY  PTCLDY    44  24  45 NW7       30.05R                  
CENTRAL PARK   PTCLDY    42  26  53 W6        30.08R                  
$$


SKY/WX - Weather  TMP - Temperature  DP - Dew Point  RH - Humidity
WIND - Wind Direction/Speed PRES - Barometric Pressure VSB - Visibility
WCI - Wind Chill Index E13G22 Wind - East Wind 13 mph/Gusts of 22 mph

Trending Headlines

Trending Entertainment Headlines

Acra Radar Loop

Use the map search tool if you want to place a location marker on the radar map...

Acra Quick Facts

National Two Day Weather Forecast


E-mail the Acra Weather Forecast

Voice your opinion or tell us about page issues...